This demonstration page uses our WeatherBlox Daily Observations layout. Learn more.

Left ArrowRight Arrow

39.08367, -84.50855

Hourly Observations for September 19, 2017

Temp ( °F °C ) Dew Point ( °F °C ) Humidity (%) Winds ( mph kmh ) Pressure ( in mb ) Visibility ( mi km ) Precip ( " mm )
12:10 am 00:10 Mostly Cloudy with Fog 67 19.4 67 19.4 100 100 N N/A 29.97 1015 1 1 N/A
12:27 am 00:27 Partly Cloudy with Mist and Fog 67 19.4 67 19.4 100 100 N N/A 29.97 1015 2 2 N/A
12:43 am 00:43 Mostly Clear with Mist and Fog 67 19.4 67 19.4 100 100 N N/A 29.97 1015 3 5 N/A
12:53 am 00:53 Clear with Mist and Fog 67 19.4 67 19.4 100 100 N N/A 29.98 1015 4 6 N/A
1:02 am 01:02 Clear with Mist and Fog 66 18.9 66 18.9 100 100 N N/A 29.97 1015 2 2 N/A
1:12 am 01:12 Clear with Fog 66 18.9 66 18.9 100 100 N N/A 29.97 1015 1 1 N/A
1:28 am 01:28 Clear with Mist and Fog 66 18.9 66 18.9 100 100 N N/A 29.97 1015 2 3 N/A
1:36 am 01:36 Clear with Mist and Fog 66 18.9 66 18.9 100 100 N N/A 29.97 1015 4 6 N/A
1:41 am 01:41 Clear with Mist and Fog 66 18.9 66 18.9 100 100 N N/A 29.97 1015 2 3 N/A
1:50 am 01:50 Mostly Cloudy with Mist and Fog 66 19 66 19 100 100 N N/A 29.97 1015 1 1 N/A
1:53 am 01:53 Mostly Cloudy with Fog 65 18.3 65 18.3 100 100 N N/A 29.98 1015 1 1 N/A
2:10 am 02:10 Mostly Cloudy with Mist and Fog 66 18.9 66 18.9 100 100 N N/A 29.97 1015 1 2 N/A
2:17 am 02:17 Partly Cloudy with Mist and Fog 66 18.9 66 18.9 100 100 N N/A 29.97 1015 2 3 N/A
2:26 am 02:26 Partly Cloudy with Mist and Fog 66 18.9 66 18.9 100 100 N N/A 29.97 1015 1 1 N/A
2:42 am 02:42 Mostly Cloudy with Mist and Fog 65 18.3 65 18.3 100 100 N N/A 29.97 1015 1 2 N/A
2:45 am 02:45 Mostly Cloudy with Mist and Fog 65 18.3 65 18.3 100 100 N N/A 29.97 1015 1 1 N/A
2:53 am 02:53 Cloudy with Fog 65 18.3 65 18.3 100 100 N N/A 29.98 1015 1 1 N/A
3:02 am 03:02 Cloudy with Mist and Fog 65 18.3 65 18.3 100 100 N N/A 29.97 1015 2 3 N/A
3:14 am 03:14 Cloudy 65 18.3 65 18.3 100 100 N N/A 29.94 1014 7 11 N/A
3:24 am 03:24 Cloudy 66 18.9 66 18.9 100 100 N N/A 29.94 1014 7 11 N/A
3:53 am 03:53 Mostly Cloudy with Mist and Fog 67 19.4 67 19.4 100 100 N N/A 29.96 1015 4 6 N/A
4:18 am 04:18 Cloudy with Mist and Fog 66 18.9 66 18.9 100 100 N N/A 29.94 1014 2 3 N/A
4:38 am 04:38 Mostly Cloudy with Fog 66 18.9 66 18.9 100 100 N N/A 29.94 1014 1 1 N/A
4:53 am 04:53 Partly Cloudy with Mist and Fog 66 18.9 66 18.9 100 100 N N/A 29.96 1015 2 3 N/A
5:23 am 05:23 Mostly Cloudy with Mist and Fog 66 18.9 66 18.9 100 100 N N/A 29.94 1014 3 5 N/A
5:53 am 05:53 Mostly Cloudy with Mist and Fog 66 18.9 66 18.9 100 100 N N/A 29.96 1015 4 6 N/A
6:05 am 06:05 Mostly Cloudy with Mist and Fog 66 18.9 66 18.9 100 100 N N/A 29.94 1014 1 2 N/A
6:22 am 06:22 Clear with Mist and Fog 66 18.9 66 18.9 100 100 N N/A 29.94 1014 4 6 N/A
6:53 am 06:53 Clear with Mist and Fog 66 18.9 66 18.9 100 100 N N/A 29.96 1015 4 6 N/A
7:53 am 07:53 Sunny 68 20 67 19.4 96 96 N N/A 29.96 1015 7 11 N/A
8:53 am 08:53 Mostly Cloudy 69 20.6 68 20 96 96 N N/A 29.98 1015 8 13 N/A
9:53 am 09:53 Cloudy with Mist and Fog 70 21.1 69 20.6 97 97 N N/A 30.00 1016 6 10 N/A
10:53 am 10:53 Cloudy with Light Rain 70 21.1 69 20.6 97 97 S 7 11 30.01 1016 5 8 0.09 2.29
11:53 am 11:53 Cloudy with Light Rain 70 21.1 70 21.1 100 100 S 6 9 30.02 1017 4 6 0.06 1.52
12:15 pm 12:15 Cloudy with Rain 70 21.1 70 21.1 100 100 SSE 5 7 30.00 1016 3 5 0.01 0.25
12:53 pm 12:53 Cloudy with Light Rain 71 21.7 69 20.6 94 94 SW 8 13 30.00 1016 6 10 0.06 1.52
1:53 pm 13:53 Mostly Cloudy 72 22.2 68 20 87 87 SE 5 7 29.98 1015 10 16 N/A
2:53 pm 14:53 Mostly Sunny 74 23.3 67 19.4 79 79 N N/A 29.96 1015 10 16 N/A
3:53 pm 15:53 Sunny 77 25 69 20.6 77 77 N N/A 29.93 1014 10 16 N/A
4:53 pm 16:53 Mostly Sunny 77 25 69 20.6 77 77 S 5 7 29.92 1013 10 16 N/A
5:53 pm 17:53 Mostly Cloudy 75 23.9 70 21.1 84 84 S 5 7 29.92 1013 10 16 N/A
6:53 pm 18:53 Cloudy 75 23.9 70 21.1 84 84 N N/A 29.93 1014 10 16 N/A
7:53 pm 19:53 Cloudy 72 22.2 71 21.7 97 97 N N/A 29.93 1014 10 16 N/A
8:53 pm 20:53 Mostly Cloudy 68 20 68 20 100 100 N N/A 29.94 1014 10 16 N/A
9:53 pm 21:53 Clear 66 18.9 66 18.9 100 100 N N/A 29.95 1014 10 16 N/A
10:46 pm 22:46 Clear with Mist and Fog 66 18.9 66 18.9 100 100 N N/A 29.94 1014 3 4 N/A
10:53 pm 22:53 Clear with Mist and Fog 66 18.9 66 18.9 100 100 N N/A 29.96 1015 1 2 N/A
11:02 pm 23:02 Clear with Mist and Fog 66 18.9 66 18.9 100 100 N N/A 29.94 1014 3 5 N/A
11:18 pm 23:18 Clear with Mist and Fog 65 18.3 65 18.3 100 100 N N/A 29.94 1014 2 3 N/A
11:27 pm 23:27 Mostly Cloudy with Fog 65 18.3 65 18.3 100 100 N N/A 29.94 1014 1 1 N/A
11:35 pm 23:35 Partly Cloudy with Mist and Fog 64 17.8 64 17.8 100 100 N N/A 29.94 1014 1 2 N/A
11:38 pm 23:38 Mostly Cloudy with Mist and Fog 64 17.8 64 17.8 100 100 N N/A 29.94 1014 1 1 N/A
11:53 pm 23:53 Mostly Cloudy with Mist and Fog 66 18.9 66 18.9 100 100 N N/A 29.97 1015 1 1 N/A

Powered by AerisWeather